GW5351 Weather Reports


Display with metric or nautical units.
time (UTC)temp
F
wind
direction
speed
MPH
gust
MPH
rain 1hr
in
rain 24hr
in
rain mn
in
humidity
%
barometer
mb
20260902203121 97 232 4.0 4.0 0.00 0.00 0.00 54 1012.9
20260902202617 97 246 5.0 6.0 0.00 0.00 0.00 53 1012.8
20260902202114 96 195 1.0 3.0 0.00 0.00 0.00 55 1013.0
20260902201609 96 229 5.0 8.0 0.00 0.00 0.00 54 1013.0
20260902201108 96 209 2.0 7.0 0.00 0.00 0.00 54 1013.1
20260902200603 96 230 4.0 11.0 0.00 0.00 0.00 55 1012.8
20260902200059 96 209 2.0 4.0 0.00 0.00 0.00 56 1012.9
20260902195555 96 240 3.0 4.0 0.00 0.00 0.00 56 1013.0
20260902195054 95 138 4.0 9.0 0.00 0.00 0.00 55 1013.3
20260902194553 96 237 4.0 6.0 0.00 0.00 0.00 55 1013.2
20260902194049 96 148 5.0 9.0 0.00 0.00 0.00 54 1013.5
20260902193545 95 202 2.0 3.0 0.00 0.00 0.00 57 1013.5
20260902193044 95 183 3.0 7.0 0.00 0.00 0.00 58 1013.6
20260902192543 95 219 1.0 1.0 0.00 0.00 0.00 57 1013.8
20260902192042 96 205 4.0 10.0 0.00 0.00 0.00 57 1013.7
20260902191538 96 202 2.0 6.0 0.00 0.00 0.00 57 1013.7
20260902191032 95 168 2.0 4.0 0.00 0.00 0.00 58 1013.9
20260902190527 96 229 4.0 14.0 0.00 0.00 0.00 59 1013.9
20260902190023 95 205 1.0 3.0 0.00 0.00 0.00 57 1014.1
20260902185519 95 239 2.0 6.0 0.00 0.00 0.00 58 1014.1
20260902185015 95 161 3.0 6.0 0.00 0.00 0.00 59 1014.1
20260902184509 95 259 4.0 7.0 0.00 0.00 0.00 57 1014.3
20260902184004 94 223 1.0 9.0 0.00 0.00 0.00 59 1014.2
20260902183501 95 203 1.0 2.0 0.00 0.00 0.00 58 1014.5
20260902182957 94 249 2.0 4.0 0.00 0.00 0.00 57 1014.4
20260902182453 94 267 3.0 9.0 0.00 0.00 0.00 58 1014.5
20260902181948 95 216 0.0 3.0 0.00 0.00 0.00 60 1014.7
20260902181444 94 237 3.0 4.0 0.00 0.00 0.00 58 1014.7
20260902180938 94 211 1.0 4.0 0.00 0.00 0.00 62 1014.8
20260902180434 94 218 3.0 6.0 0.00 0.00 0.00 60 1014.9
20260902175930 94 224 1.0 7.0 0.00 0.00 0.00 62 1015.3
20260902175424 93 215 3.0 4.0 0.00 0.00 0.00 62 1015.2
20260902174920 93 177 2.0 6.0 0.00 0.00 0.00 62 1015.2
20260902174417 93 230 5.0 7.0 0.00 0.00 0.00 62 1015.6
20260902173912 92 218 2.0 4.0 0.00 0.00 0.00 64 1015.6
20260902173412 92 217 2.0 3.0 0.00 0.00 0.00 64 1015.6
20260902172912 91 225 2.0 6.0 0.00 0.00 0.00 68 1015.7
20260902172411 91 226 2.0 4.0 0.00 0.00 0.00 68 1015.8
20260902171906 91 229 1.0 4.0 0.00 0.00 0.00 68 1015.8
20260902171401 91 220 3.0 3.0 0.00 0.00 0.00 68 1016.1
20260902170858 91 286 3.0 7.0 0.00 0.00 0.00 69 1016.2
20260902170353 89 229 1.0 2.0 0.00 0.00 0.00 73 1016.1
20260902165848 88 234 2.0 3.0 0.00 0.00 0.00 75 1016.3
20260902165347 89 214 0.0 3.0 0.00 0.00 0.00 76 1016.4
20260902164843 88 260 4.0 8.0 0.00 0.00 0.00 76 1016.3
20260902164338 88 227 3.0 6.0 0.00 0.00 0.00 77 1016.5
20260902163837 87 216 0.0 4.0 0.00 0.00 0.00 78 1016.2
20260902163337 86 223 1.0 2.0 0.00 0.00 0.00 78 1016.4
20260902162836 86 251 3.0 4.0 0.00 0.00 0.00 78 1016.4
20260902162331 86 246 3.0 4.0 0.00 0.00 0.00 79 1016.4
20260902161830 86 200 1.0 3.0 0.00 0.00 0.00 79 1016.6
20260902161326 86 241 2.0 3.0 0.00 0.00 0.00 80 1016.6
20260902160822 86 272 3.0 6.0 0.00 0.00 0.00 80 1016.5
20260902160317 86 196 3.0 6.0 0.00 0.00 0.00 81 1016.4
20260902155815 86 206 2.0 7.0 0.00 0.00 0.00 82 1016.5
20260902155314 85 216 3.0 6.0 0.00 0.00 0.00 83 1016.6
20260902154809 84 247 2.0 6.0 0.00 0.00 0.00 84 1016.3
20260902154305 84 162 2.0 4.0 0.00 0.00 0.00 85 1016.6
20260902153804 84 233 2.0 4.0 0.00 0.00 0.00 86 1016.4
20260902153258 84 249 3.0 4.0 0.00 0.00 0.00 86 1016.6
20260902152754 84 257 3.0 4.0 0.00 0.00 0.00 86 1016.5
20260902152250 83 262 1.0 3.0 0.00 0.00 0.00 87 1016.6
20260902151750 83 231 1.0 3.0 0.00 0.00 0.00 88 1016.5
20260902151245 83 229 3.0 4.0 0.00 0.00 0.00 88 1016.6
20260902150740 83 272 1.0 3.0 0.00 0.00 0.00 88 1016.5
20260902150237 82 217 0.0 3.0 0.00 0.00 0.00 88 1016.7
20260902145735 82 211 3.0 7.0 0.00 0.00 0.00 89 1016.6
20260902145231 82 267 3.0 4.0 0.00 0.00 0.00 89 1016.5
20260902144726 82 222 1.0 3.0 0.00 0.00 0.00 90 1016.4
20260902144222 81 216 2.0 3.0 0.00 0.00 0.00 90 1016.5
20260902143717 81 245 2.0 3.0 0.00 0.00 0.00 91 1016.6
20260902143212 81 226 0.0 6.0 0.00 0.00 0.00 91 1016.6
20260902142708 81 257 4.0 4.0 0.00 0.00 0.00 91 1016.5
20260902142204 81 221 0.0 0.0 0.00 0.00 0.00 92 1016.6
20260902141703 80 217 1.0 2.0 0.00 0.00 0.00 92 1016.6
20260902141158 80 221 1.0 2.0 0.00 0.00 0.00 92 1016.5
20260902140655 80 231 2.0 3.0 0.00 0.00 0.00 92 1016.5
20260902140154 80 198 3.0 4.0 0.00 0.00 0.00 92 1016.5
20260902135653 80 205 0.0 1.0 0.00 0.00 0.00 93 1016.5
20260902135149 80 227 2.0 4.0 0.00 0.00 0.00 93 1016.4
20260902134644 80 221 1.0 1.0 0.00 0.00 0.00 93 1016.4
20260902134144 80 249 1.0 2.0 0.00 0.00 0.00 93 1016.3
20260902133639 80 260 2.0 2.0 0.00 0.00 0.00 93 1016.4
20260902133133 80 236 2.0 4.0 0.00 0.00 0.00 93 1016.4
20260902132629 80 227 1.0 2.0 0.00 0.00 0.00 93 1016.4
20260902132124 80 227 0.0 2.0 0.00 0.00 0.00 93 1016.4
20260902131620 80 219 0.0 3.0 0.00 0.00 0.00 93 1016.2
20260902131115 80 269 2.0 3.0 0.00 0.00 0.00 93 1016.2
20260902130612 80 229 1.0 3.0 0.00 0.00 0.00 93 1015.9
20260902130112 80 229 1.0 3.0 0.00 0.00 0.00 93 1015.8
20260902125608 79 208 1.0 2.0 0.00 0.00 0.00 93 1016.0
20260902125103 79 225 0.0 3.0 0.00 0.00 0.00 93 1015.8
20260902124600 79 247 0.0 4.0 0.00 0.00 0.00 93 1015.7
20260902124059 79 226 1.0 2.0 0.00 0.00 0.00 93 1015.8
20260902123555 79 222 0.0 3.0 0.00 0.00 0.00 93 1015.5
20260902123050 79 207 4.0 4.0 0.00 0.00 0.00 93 1015.3
20260902122543 79 220 2.0 3.0 0.00 0.00 0.00 93 1015.2
20260902122039 79 220 1.0 6.0 0.00 0.00 0.00 93 1015.1
20260902121533 79 212 2.0 6.0 0.00 0.00 0.00 93 1014.9
20260902121028 79 224 3.0 4.0 0.00 0.00 0.00 93 1014.7
20260902120525 79 242 2.0 3.0 0.00 0.00 0.00 93 1014.7
20260902120021 79 273 3.0 6.0 0.00 0.00 0.00 93 1014.8
20260902115515 80 235 4.0 6.0 0.00 0.00 0.00 93 1014.6
20260902115012 80 227 2.0 3.0 0.00 0.00 0.00 93 1014.6
20260902114507 80 212 0.0 4.0 0.00 0.00 0.00 93 1014.7
20260902114002 80 224 0.0 4.0 0.00 0.00 0.00 93 1014.6
20260902113458 80 213 3.0 3.0 0.00 0.00 0.00 93 1014.5
20260902112957 80 245 2.0 7.0 0.00 0.00 0.00 92 1014.7
20260902112453 80 217 2.0 6.0 0.00 0.00 0.00 92 1014.7
20260902111949 80 225 1.0 3.0 0.00 0.00 0.00 92 1014.6
20260902111446 80 238 2.0 7.0 0.00 0.00 0.00 92 1014.5
20260902110941 80 260 1.0 2.0 0.00 0.00 0.00 92 1014.6
20260902110437 80 233 1.0 3.0 0.00 0.00 0.00 92 1014.6
20260902105931 80 241 3.0 3.0 0.00 0.00 0.00 92 1014.4
20260902105426 80 242 1.0 4.0 0.00 0.00 0.00 92 1014.4
20260902104921 80 265 2.0 4.0 0.00 0.00 0.00 92 1014.5
20260902104418 80 253 2.0 6.0 0.00 0.00 0.00 91 1014.6
20260902103917 80 214 0.0 3.0 0.00 0.00 0.00 91 1014.6
20260902103413 80 261 2.0 3.0 0.00 0.00 0.00 90 1014.7
20260902102908 80 260 3.0 4.0 0.00 0.00 0.00 90 1014.7
20260902102405 80 214 1.0 3.0 0.00 0.00 0.00 90 1014.8
20260902101900 80 221 0.0 2.0 0.00 0.00 0.00 90 1014.7
20260902101355 80 245 1.0 3.0 0.00 0.00 0.00 90 1014.7
20260902100854 80 231 1.0 3.0 0.00 0.00 0.00 89 1014.6
20260902100354 80 229 1.0 2.0 0.00 0.00 0.00 89 1014.5
20260902095849 80 253 2.0 6.0 0.00 0.00 0.00 89 1014.5
20260902095348 80 252 2.0 3.0 0.00 0.00 0.00 89 1014.6
20260902094842 80 225 2.0 3.0 0.00 0.00 0.00 89 1014.8
20260902094339 80 245 2.0 4.0 0.00 0.00 0.00 89 1014.8
20260902093838 80 240 1.0 3.0 0.00 0.00 0.00 89 1014.6
20260902093333 80 211 4.0 4.0 0.00 0.00 0.00 89 1014.7
20260902092832 80 243 2.0 4.0 0.00 0.00 0.00 89 1014.7
20260902092328 80 248 2.0 4.0 0.00 0.00 0.00 89 1014.6
20260902091822 80 214 0.0 3.0 0.00 0.00 0.00 89 1014.6
20260902091318 80 223 1.0 3.0 0.00 0.00 0.00 89 1014.6
20260902090815 80 255 3.0 3.0 0.00 0.00 0.00 88 1014.6
20260902090314 80 223 1.0 6.0 0.00 0.00 0.00 87 1014.5
20260902085813 80 221 1.0 3.0 0.00 0.00 0.00 87 1014.6
20260902085308 80 215 2.0 3.0 0.00 0.00 0.00 86 1014.7
20260902084804 80 265 2.0 4.0 0.00 0.00 0.00 86 1014.7
20260902084301 79 220 2.0 2.0 0.00 0.00 0.00 86 1014.6
20260902083755 79 222 1.0 2.0 0.00 0.00 0.00 86 1014.4
20260902083249 79 224 0.0 1.0 0.00 0.00 0.00 86 1014.5
20260902082744 79 224 0.0 1.0 0.00 0.00 0.00 86 1014.5
20260902082241 79 223 0.0 2.0 0.00 0.00 0.00 86 1014.5
20260902081737 79 223 0.0 2.0 0.00 0.00 0.00 86 1014.7
20260902081232 79 221 0.0 1.0 0.00 0.00 0.00 86 1014.7
20260902080727 79 228 1.0 2.0 0.00 0.00 0.00 86 1014.5
20260902080225 79 227 0.0 1.0 0.00 0.00 0.00 87 1014.5
20260902075723 79 224 0.0 1.0 0.00 0.00 0.00 86 1014.4
20260902075220 79 236 1.0 3.0 0.00 0.00 0.00 85 1014.5
20260902074719 79 220 0.0 2.0 0.00 0.00 0.00 85 1014.6
20260902074215 79 230 1.0 2.0 0.00 0.00 0.00 86 1014.6
20260902073710 79 227 0.0 2.0 0.00 0.00 0.00 86 1014.7
20260902073206 79 229 0.0 0.0 0.00 0.00 0.00 87 1014.7
20260902072702 79 233 0.0 1.0 0.00 0.00 0.00 87 1014.7
20260902072158 79 229 1.0 1.0 0.00 0.00 0.00 87 1014.6
20260902071654 79 243 2.0 2.0 0.00 0.00 0.00 87 1014.6
20260902071149 79 223 1.0 4.0 0.00 0.00 0.00 87 1014.7
20260902070645 79 246 1.0 2.0 0.00 0.00 0.00 88 1014.8
20260902070144 79 258 2.0 4.0 0.00 0.00 0.00 87 1014.9
20260902065643 78 272 1.0 2.0 0.00 0.00 0.00 88 1015.0
20260902065139 79 227 1.0 2.0 0.00 0.00 0.00 88 1014.8
20260902064635 79 227 1.0 2.0 0.00 0.00 0.00 88 1014.8
20260902064130 79 233 1.0 2.0 0.00 0.00 0.00 88 1014.7
20260902063625 79 225 1.0 2.0 0.00 0.00 0.00 87 1014.9
20260902063120 78 226 0.0 1.0 0.00 0.00 0.00 88 1014.9
20260902062619 78 231 0.0 2.0 0.00 0.00 0.00 88 1014.8
20260902062115 78 245 1.0 2.0 0.00 0.00 0.00 88 1014.9
20260902061614 78 223 1.0 2.0 0.00 0.00 0.00 88 1014.8
20260902061110 78 240 1.0 2.0 0.00 0.00 0.00 89 1014.8
20260902060606 78 227 2.0 2.0 0.00 0.00 0.00 89 1014.8
20260902055558 78 226 1.0 2.0 0.00 0.00 0.00 89 1014.5
20260902055054 78 231 0.0 1.0 0.00 0.00 0.00 89 1014.7
20260902054554 78 220 0.0 0.0 0.00 0.00 0.00 89 1014.8
20260902054050 78 225 0.0 1.0 0.00 0.00 0.00 89 1014.6
20260902053545 78 224 1.0 2.0 0.00 0.00 0.00 89 1014.6
20260902053044 78 228 0.0 1.0 0.00 0.00 0.00 90 1014.5
20260902052539 78 220 0.0 1.0 0.00 0.00 0.00 90 1014.3
20260902052035 78 227 0.0 0.0 0.00 0.00 0.00 90 1014.5
20260902051534 78 227 0.0 0.0 0.00 0.00 0.00 90 1014.7
20260902051033 78 229 0.0 1.0 0.00 0.00 0.00 91 1014.8
20260902050528 78 217 1.0 2.0 0.00 0.00 0.00 91 1014.6
20260902050024 78 228 0.0 1.0 0.00 0.03 0.03 91 1014.6
20260902045519 78 228 0.0 1.0 0.00 0.03 0.03 91 1014.7
20260902045015 78 228 0.0 1.0 0.00 0.03 0.03 91 1014.7
20260902044509 78 229 0.0 1.0 0.00 0.03 0.03 91 1014.7
20260902044005 78 220 1.0 1.0 0.00 0.03 0.03 91 1014.5
20260902043500 78 224 0.0 1.0 0.00 0.03 0.03 91 1014.8
20260902042955 78 226 0.0 2.0 0.00 0.03 0.03 91 1014.7
20260902042455 78 227 0.0 2.0 0.00 0.03 0.03 92 1014.7
20260902041950 78 229 0.0 1.0 0.00 0.03 0.03 92 1015.0
20260902041450 78 229 0.0 0.0 0.00 0.03 0.03 92 1014.9
20260902040951 78 238 0.0 2.0 0.00 0.03 0.03 92 1014.9
20260902040450 78 231 0.0 0.0 0.00 0.03 0.03 93 1015.0
20260902035950 78 231 1.0 1.0 0.00 0.03 0.03 93 1015.2
20260902035445 78 231 0.0 1.0 0.00 0.03 0.03 93 1015.0
20260902034944 78 218 0.0 1.0 0.00 0.03 0.03 93 1014.9
20260902034439 78 232 1.0 1.0 0.00 0.03 0.03 94 1014.9
20260902033939 77 228 1.0 2.0 0.00 0.03 0.03 95 1015.1
20260902033437 77 230 1.0 2.0 0.00 0.03 0.03 96 1015.0
20260902032937 77 224 0.0 0.0 0.00 0.03 0.03 96 1015.1
20260902032432 78 224 0.0 0.0 0.00 0.03 0.03 96 1015.1
20260902031927 78 224 0.0 1.0 0.00 0.03 0.03 95 1015.0
20260902031422 78 225 0.0 0.0 0.00 0.03 0.03 95 1015.1
20260902030919 78 225 0.0 0.0 0.00 0.03 0.03 95 1015.0
20260902030418 78 225 0.0 0.0 0.00 0.03 0.03 95 1014.9
20260902025917 78 225 0.0 0.0 0.00 0.03 0.03 95 1014.8
20260902025413 78 225 0.0 1.0 0.00 0.03 0.03 95 1014.8
20260902024908 78 219 0.0 1.0 0.00 0.03 0.03 95 1014.8
20260902024403 78 233 0.0 1.0 0.00 0.03 0.03 94 1014.7
20260902023858 78 233 0.0 0.0 0.00 0.03 0.03 94 1014.6
20260902023354 78 233 0.0 0.0 0.00 0.03 0.03 94 1014.5
20260902022853 78 233 0.0 0.0 0.00 0.03 0.03 94 1014.4
20260902022348 78 233 0.0 0.0 0.00 0.03 0.03 94 1014.3
20260902021845 78 233 0.0 0.0 0.00 0.03 0.03 93 1014.3
20260902021344 78 255 0.0 1.0 0.00 0.03 0.03 93 1014.1
20260902020840 78 230 1.0 1.0 0.00 0.03 0.03 93 1014.0
20260902020336 78 229 0.0 0.0 0.00 0.03 0.03 93 1014.2
20260902015831 78 348 2.0 2.0 0.00 0.03 0.03 93 1014.1
20260902015327 79 242 0.0 0.0 0.00 0.03 0.03 93 1014.1
20260902014822 79 236 0.0 0.0 0.00 0.03 0.03 93 1013.8
20260902014319 79 235 0.0 0.0 0.00 0.03 0.03 93 1013.9
20260902013817 79 232 0.0 0.0 0.00 0.03 0.03 93 1013.8
20260902013313 79 233 0.0 0.0 0.00 0.03 0.03 93 1013.6
20260902012808 79 233 0.0 0.0 0.00 0.03 0.03 93 1013.5
20260902012309 79 233 0.0 0.0 0.00 0.03 0.03 93 1013.7
20260902011800 79 233 0.0 0.0 0.00 0.03 0.03 93 1013.7
20260902011259 79 233 0.0 0.0 0.00 0.03 0.03 92 1013.7
20260902010758 79 233 0.0 0.0 0.00 0.03 0.03 92 1013.6
20260902010254 79 233 0.0 0.0 0.00 0.03 0.03 92 1013.7
20260902005753 79 233 0.0 0.0 0.00 0.03 0.03 92 1013.9
20260902005249 79 233 0.0 0.0 0.00 0.03 0.03 92 1013.8
20260902004749 80 233 0.0 0.0 0.00 0.03 0.03 92 1013.8
20260902004244 80 233 0.0 0.0 0.00 0.03 0.03 92 1013.9
20260902003738 80 233 0.0 0.0 0.00 0.03 0.03 91 1014.1
20260902003234 80 233 0.0 0.0 0.00 0.03 0.03 90 1014.0
20260902002730 80 233 0.0 0.0 0.00 0.03 0.03 91 1014.0
20260902002229 80 233 0.0 0.0 0.00 0.03 0.03 91 1014.0
20260902001725 80 232 0.0 0.0 0.00 0.03 0.03 92 1014.1
20260902001225 79 231 0.0 0.0 0.00 0.03 0.03 92 1013.8
20260902000720 79 228 0.0 0.0 0.00 0.03 0.03 92 1014.0
20260902000215 79 230 0.0 2.0 0.00 0.03 0.03 92 1014.0
20260901235715 79 234 2.0 3.0 0.00 0.03 0.03 92 1013.8
20260901235209 79 229 0.0 1.0 0.00 0.03 0.03 93 1013.8
20260901234709 79 230 0.0 1.0 0.00 0.03 0.03 93 1014.1
20260901234204 79 225 0.0 2.0 0.00 0.03 0.03 94 1013.8
20260901233704 79 198 1.0 1.0 0.00 0.03 0.03 93 1014.1
20260901233200 79 230 0.0 0.0 0.00 0.03 0.03 93 1014.1
20260901232655 79 221 0.0 0.0 0.07 0.03 0.03 93 1014.1
20260901232150 79 215 0.0 0.0 0.07 0.03 0.03 93 1014.2
20260901231647 79 205 0.0 1.0 0.00 0.02 0.02 92 1014.1
20260901231143 79 220 0.0 1.0 0.05 0.02 0.02 92 1014.3
20260901230638 78 224 0.0 2.0 0.05 0.02 0.02 91 1014.4
20260901230138 78 196 0.0 1.0 0.00 0.01 0.01 91 1014.5
20260901225633 78 163 1.0 3.0 0.00 0.01 0.01 91 1014.4
20260901225127 78 209 2.0 3.0 0.00 0.01 0.01 91 1014.5
20260901224624 78 198 0.0 2.0 0.07 0.01 0.01 91 1014.5
20260901224119 78 233 1.0 3.0 0.07 0.01 0.01 90 1014.7
20260901223614 79 208 4.0 6.0 0.00 0.00 0.00 88 1015.0
20260901223110 80 254 3.0 9.0 0.00 0.00 0.00 86 1014.9
20260901222606 83 160 4.0 10.0 0.00 0.00 0.00 81 1015.0
20260901222101 83 58 5.0 9.0 0.00 0.00 0.00 76 1015.0
20260901221558 84 212 8.0 11.0 0.00 0.00 0.00 74 1015.0
20260901221053 88 129 5.0 10.0 0.00 0.00 0.00 68 1015.2
20260901220552 91 17 6.0 10.0 0.00 0.00 0.00 59 1014.7
20260901220051 91 262 2.0 7.0 0.00 0.00 0.00 58 1014.4
20260901215549 91 308 3.0 4.0 0.00 0.00 0.00 57 1014.3
20260901215044 92 340 4.0 6.0 0.00 0.00 0.00 57 1014.2
20260901214543 92 293 3.0 3.0 0.00 0.00 0.00 57 1014.2
20260901214037 91 241 2.0 4.0 0.00 0.00 0.00 57 1014.3
20260901213532 92 42 2.0 4.0 0.00 0.00 0.00 57 1014.2
20260901213031 92 255 1.0 2.0 0.00 0.00 0.00 57 1014.2
20260901212526 91 238 0.0 2.0 0.00 0.00 0.00 57 1014.2
20260901212023 91 210 2.0 7.0 0.00 0.00 0.00 58 1014.2
20260901211518 92 14 3.0 4.0 0.00 0.00 0.00 56 1014.3
20260901211014 92 175 3.0 3.0 0.00 0.00 0.00 56 1014.2
20260901210509 92 320 2.0 4.0 0.00 0.00 0.00 55 1014.2
20260901210005 92 185 2.0 4.0 0.00 0.00 0.00 57 1014.2
20260901205500 92 249 2.0 4.0 0.00 0.00 0.00 56 1014.2
20260901204954 92 287 2.0 3.0 0.00 0.00 0.00 58 1014.2
20260901204451 92 356 5.0 7.0 0.00 0.00 0.00 57 1014.2
20260901203950 93 5 3.0 4.0 0.00 0.00 0.00 60 1014.2